KM4KMS Weather Reports


Display with metric or nautical units.
time (UTC)temp
F
wind
direction
speed
MPH
gust
MPH
rain 1hr
in
rain 24hr
in
rain mn
in
humidity
%
barometer
mb
20260504023621 54 157 1.0 2.0 0.00 0.00 0.00 63 1013.5
20260504023117 54 139 2.0 2.0 0.00 0.00 0.00 63 1013.5
20260504022614 54 104 1.0 1.0 0.00 0.00 0.00 62 1013.4
20260504022110 54 141 1.0 2.0 0.00 0.00 0.00 62 1013.3
20260504021608 54 184 2.0 2.0 0.00 0.00 0.00 63 1013.5
20260504021104 54 206 0.0 1.0 0.00 0.00 0.00 63 1013.4
20260504020601 53 178 2.0 2.0 0.00 0.00 0.00 63 1013.5
20260504020057 54 209 0.0 1.0 0.00 0.00 0.00 64 1013.4
20260504015554 53 319 0.0 1.0 0.00 0.00 0.00 64 1013.6
20260504015050 53 357 0.0 0.0 0.00 0.00 0.00 63 1013.3
20260504014546 54 357 0.0 0.0 0.00 0.00 0.00 61 1013.6
20260504014044 55 357 0.0 1.0 0.00 0.00 0.00 60 1013.6
20260504013541 55 357 0.0 0.0 0.00 0.00 0.00 60 1013.7
20260504013038 55 357 0.0 0.0 0.00 0.00 0.00 59 1013.6
20260504012536 55 353 0.0 1.0 0.00 0.00 0.00 58 1013.7
20260504012033 56 355 0.0 0.0 0.00 0.00 0.00 59 1013.5
20260504011530 56 3 0.0 0.0 0.00 0.00 0.00 57 1013.3
20260504011026 57 349 0.0 0.0 0.00 0.00 0.00 56 1013.3
20260504010522 57 318 0.0 0.0 0.00 0.00 0.00 55 1013.2
20260504010018 57 229 0.0 1.0 0.00 0.00 0.00 55 1013.2
20260504005515 58 236 1.0 1.0 0.00 0.00 0.00 54 1013.0
20260504005012 58 233 1.0 2.0 0.00 0.00 0.00 53 1013.1
20260504004510 58 257 4.0 3.0 0.00 0.00 0.00 52 1013.1
20260504004007 58 231 3.0 3.0 0.00 0.00 0.00 53 1012.8
20260504003503 58 239 3.0 3.0 0.00 0.00 0.00 52 1012.6
20260504003000 58 242 2.0 3.0 0.00 0.00 0.00 52 1012.8
20260504002457 59 231 2.0 5.0 0.00 0.00 0.00 52 1012.6
20260504001954 59 251 3.0 7.0 0.00 0.00 0.00 51 1012.8
20260504001451 59 229 6.0 6.0 0.00 0.00 0.00 50 1012.8
20260504000948 60 193 3.0 3.0 0.00 0.00 0.00 49 1012.5
20260504000445 60 216 3.0 5.0 0.00 0.00 0.00 48 1012.7
20260503235942 60 238 7.0 9.0 0.00 0.00 0.00 47 1012.7
20260503235440 60 183 4.0 3.0 0.00 0.00 0.00 48 1012.7
20260503234937 61 240 4.0 5.0 0.00 0.00 0.00 48 1012.6
20260503234435 61 253 6.0 10.0 0.00 0.00 0.00 46 1012.7
20260503233933 61 217 5.0 13.0 0.00 0.00 0.00 46 1012.6
20260503233429 61 270 7.0 8.0 0.00 0.00 0.00 45 1012.7
20260503232925 62 242 5.0 8.0 0.00 0.00 0.00 45 1012.5
20260503232422 62 227 8.0 11.0 0.00 0.00 0.00 43 1012.5
20260503231920 62 258 6.0 8.0 0.00 0.00 0.00 44 1012.8
20260503231417 62 255 4.0 5.0 0.00 0.00 0.00 44 1013.0
20260503230914 62 231 3.0 7.0 0.00 0.00 0.00 44 1013.2
20260503230410 63 216 9.0 13.0 0.00 0.00 0.00 42 1013.1
20260503225908 62 250 5.0 7.0 0.00 0.00 0.00 43 1013.5
20260503225404 62 266 4.0 6.0 0.00 0.00 0.00 44 1013.4
20260503224900 62 212 5.0 6.0 0.00 0.00 0.00 44 1013.4
20260503224357 61 240 3.0 6.0 0.00 0.00 0.00 44 1013.4
20260503223855 61 240 4.0 3.0 0.00 0.00 0.00 44 1013.6
20260503223353 62 237 7.0 10.0 0.00 0.00 0.00 42 1013.7
20260503222848 62 254 9.0 13.0 0.00 0.00 0.00 41 1013.7
20260503222347 62 277 5.0 8.0 0.00 0.00 0.00 43 1013.9
20260503221844 63 211 9.0 9.0 0.00 0.00 0.00 41 1013.8
20260503221343 63 246 4.0 9.0 0.00 0.00 0.00 42 1013.8
20260503220838 63 254 7.0 9.0 0.00 0.00 0.00 42 1013.8
20260503220336 63 245 8.0 10.0 0.00 0.00 0.00 42 1014.0
20260503215832 63 248 5.0 9.0 0.00 0.00 0.00 42 1014.1
20260503215330 63 240 7.0 14.0 0.00 0.00 0.00 41 1014.1
20260503214827 64 191 8.0 9.0 0.00 0.00 0.00 41 1014.1
20260503214324 63 231 10.0 10.0 0.00 0.00 0.00 40 1014.3
20260503213822 63 206 8.0 11.0 0.00 0.00 0.00 39 1014.3
20260503213319 63 255 5.0 10.0 0.00 0.00 0.00 41 1014.3
20260503212816 64 250 8.0 11.0 0.00 0.00 0.00 39 1014.4
20260503212314 63 247 5.0 9.0 0.00 0.00 0.00 41 1014.0
20260503211811 62 225 7.0 11.0 0.00 0.00 0.00 40 1014.2
20260503211308 64 260 11.0 14.0 0.00 0.00 0.00 40 1014.1
20260503210807 63 221 8.0 9.0 0.00 0.00 0.00 41 1014.4
20260503210306 63 223 5.0 8.0 0.00 0.00 0.00 40 1014.1
20260503205800 62 234 11.0 16.0 0.00 0.00 0.00 40 1014.6
20260503205257 63 199 10.0 10.0 0.00 0.00 0.00 39 1014.9
20260503204753 63 203 6.0 9.0 0.00 0.00 0.00 42 1014.7
20260503204251 63 233 9.0 11.0 0.00 0.00 0.00 40 1014.7
20260503203749 63 260 8.0 13.0 0.00 0.00 0.00 41 1014.9
20260503203246 62 241 13.0 14.0 0.00 0.00 0.00 39 1015.0
20260503202743 62 174 8.0 10.0 0.00 0.00 0.00 42 1015.0
20260503202241 63 227 7.0 8.0 0.00 0.00 0.00 41 1015.2
20260503201738 62 262 5.0 8.0 0.00 0.00 0.00 43 1015.2
20260503201236 61 227 12.0 14.0 0.00 0.00 0.00 42 1015.6
20260503200732 62 163 6.0 14.0 0.00 0.00 0.00 43 1015.3
20260503200228 63 226 7.0 11.0 0.00 0.00 0.00 42 1015.6
20260503195725 61 215 11.0 13.0 0.00 0.00 0.00 43 1016.0
20260503195222 62 200 6.0 9.0 0.00 0.00 0.00 46 1015.9
20260503194720 61 258 6.0 9.0 0.00 0.00 0.00 41 1016.0
20260503194215 61 241 12.0 11.0 0.00 0.00 0.00 44 1016.0
20260503193712 61 227 8.0 13.0 0.00 0.00 0.00 42 1016.3
20260503193208 61 236 3.0 10.0 0.00 0.00 0.00 44 1016.5
20260503192703 61 255 10.0 10.0 0.00 0.00 0.00 40 1016.4
20260503192159 61 284 9.0 14.0 0.00 0.00 0.00 43 1016.7
20260503191655 61 202 9.0 11.0 0.00 0.00 0.00 43 1016.5
20260503191153 61 244 7.0 13.0 0.00 0.00 0.00 43 1016.7
20260503190650 61 254 6.0 9.0 0.00 0.00 0.00 43 1017.0
20260503190146 60 266 9.0 11.0 0.00 0.00 0.00 41 1017.0
20260503185643 60 217 4.0 8.0 0.00 0.00 0.00 42 1016.8
20260503185138 61 207 9.0 10.0 0.00 0.00 0.00 41 1017.1
20260503184634 60 274 7.0 10.0 0.00 0.00 0.00 39 1017.1
20260503184130 60 228 6.0 11.0 0.00 0.00 0.00 46 1017.3
20260503183627 60 259 8.0 9.0 0.00 0.00 0.00 40 1017.1
20260503183124 60 235 9.0 13.0 0.00 0.00 0.00 43 1017.5
20260503182622 60 267 7.0 10.0 0.00 0.00 0.00 42 1017.3
20260503182120 60 259 9.0 11.0 0.00 0.00 0.00 42 1017.5
20260503181617 60 314 7.0 11.0 0.00 0.00 0.00 42 1017.5
20260503181114 60 273 8.0 11.0 0.00 0.00 0.00 44 1017.6
20260503180611 60 271 3.0 5.0 0.00 0.00 0.00 46 1017.8
20260503180109 59 240 5.0 11.0 0.00 0.00 0.00 46 1017.6
20260503175605 58 298 3.0 5.0 0.00 0.00 0.00 46 1017.6
20260503175102 59 246 14.0 15.0 0.00 0.00 0.00 40 1017.7
20260503174559 59 238 6.0 7.0 0.00 0.00 0.00 43 1018.1
20260503174056 60 235 7.0 9.0 0.00 0.00 0.00 45 1018.0
20260503173551 59 242 7.0 9.0 0.00 0.00 0.00 41 1018.2
20260503173048 59 257 6.0 9.0 0.00 0.00 0.00 42 1018.2
20260503172545 58 241 7.0 11.0 0.00 0.00 0.00 40 1018.4
20260503172042 57 224 7.0 10.0 0.00 0.00 0.00 40 1018.4
20260503171538 58 182 7.0 11.0 0.00 0.00 0.00 46 1018.6
20260503171036 57 231 5.0 13.0 0.00 0.00 0.00 44 1018.5
20260503170532 59 186 7.0 9.0 0.00 0.00 0.00 42 1018.8
20260503150925 55 285 3.0 5.0 0.00 0.00 0.00 50 1019.5
20260503150421 56 280 5.0 7.0 0.00 0.00 0.00 52 1019.6
20260503131314 48 236 6.0 7.0 0.00 0.00 0.00 69 1019.8
20260503130812 47 239 4.0 8.0 0.00 0.00 0.00 72 1019.9
20260503130309 47 209 5.0 9.0 0.00 0.00 0.00 73 1019.8
20260503110703 33 3 0.0 0.0 0.00 0.00 0.00 99 1019.4
20260503110200 33 2 0.0 0.0 0.00 0.00 0.00 99 1019.2
20260503100126 32 343 0.0 0.0 0.00 0.00 0.00 96 1018.5
20260503081516 32 339 0.0 0.0 0.00 0.00 0.00 98 1018.5
20260503081013 32 339 0.0 0.0 0.00 0.00 0.00 98 1018.4
20260503080509 32 339 0.0 0.0 0.00 0.00 0.00 98 1018.4
20260503072443 34 336 1.0 1.0 0.00 0.00 0.00 95 1018.4
20260503071940 34 336 0.0 1.0 0.00 0.00 0.00 95 1018.3
20260503071437 34 336 1.0 1.0 0.00 0.00 0.00 95 1018.1
20260503070933 34 336 1.0 1.0 0.00 0.00 0.00 94 1018.2
20260503070430 34 340 2.0 2.0 0.00 0.00 0.00 94 1018.1
20260503054843 38 4 0.0 1.0 0.00 0.00 0.00 83 1018.6
20260503054339 38 4 0.0 0.0 0.00 0.00 0.00 83 1018.5
20260503053837 37 4 0.0 1.0 0.00 0.00 0.00 83 1018.4
20260503053336 37 4 0.0 0.0 0.00 0.00 0.00 83 1018.6
20260503052831 37 4 0.0 0.0 0.00 0.00 0.00 84 1018.5
20260503052329 37 5 0.0 0.0 0.00 0.00 0.00 82 1018.3
20260503051825 38 5 0.0 0.0 0.00 0.00 0.00 81 1018.6
20260503051321 38 5 0.0 0.0 0.00 0.00 0.00 80 1018.3
20260503050818 39 5 0.0 0.0 0.00 0.00 0.00 79 1018.4
20260503050314 39 5 0.0 0.0 0.00 0.00 0.00 77 1018.8
20260503045812 39 4 0.0 0.0 0.00 0.00 0.00 75 1018.4
20260503045310 40 4 0.0 0.0 0.00 0.00 0.00 75 1018.5
20260503044806 41 4 0.0 0.0 0.00 0.00 0.00 72 1018.5
20260503044303 41 4 0.0 0.0 0.00 0.00 0.00 72 1018.4
20260503043800 41 4 0.0 1.0 0.00 0.00 0.00 73 1018.3
20260503043257 41 4 1.0 1.0 0.00 0.00 0.00 74 1018.3
20260503042753 41 3 0.0 1.0 0.00 0.00 0.00 75 1018.2
20260503042250 42 6 0.0 0.0 0.00 0.00 0.00 72 1018.4
20260503041745 42 6 0.0 0.0 0.00 0.00 0.00 72 1018.5
20260503041244 42 5 0.0 1.0 0.00 0.00 0.00 72 1018.4
20260503040741 42 5 1.0 1.0 0.00 0.00 0.00 72 1018.6
20260503040239 42 7 1.0 1.0 0.00 0.00 0.00 73 1018.4
20260503035735 42 8 0.0 1.0 0.00 0.00 0.00 75 1018.5
20260503035233 42 8 0.0 1.0 0.00 0.00 0.00 75 1018.4
20260503034730 42 6 1.0 1.0 0.00 0.00 0.00 74 1018.4
20260503034227 42 359 1.0 2.0 0.00 0.00 0.00 73 1018.5
20260503033724 42 355 2.0 2.0 0.00 0.00 0.00 73 1018.4
20260503033216 43 355 1.0 2.0 0.00 0.00 0.00 72 1018.6
20260503032714 43 357 2.0 2.0 0.00 0.00 0.00 71 1018.4
20260503032213 44 0 2.0 2.0 0.00 0.00 0.00 71 1018.4
20260503031709 44 0 2.0 2.0 0.00 0.00 0.00 70 1018.4
20260503031208 44 7 1.0 1.0 0.00 0.00 0.00 72 1018.3
20260503030703 44 4 0.0 1.0 0.00 0.00 0.00 71 1018.2
20260503030200 44 0 1.0 1.0 0.00 0.00 0.00 71 1018.2
20260503025657 45 355 2.0 2.0 0.00 0.00 0.00 71 1018.3
20260503025155 45 347 2.0 2.0 0.00 0.00 0.00 69 1018.4
20260503024651 45 350 2.0 3.0 0.00 0.00 0.00 70 1018.3
20260503024148 45 347 2.0 2.0 0.00 0.00 0.00 71 1018.1